When you browse on this site, cookies collect data to enhance your experience and personalize the content and advertising you see.
Visit our Privacy Policy to learn more. By continuing to use the site, you agree to this use of cookies and data.
  • en Belgique
  • Liste des pays
  • À 7 jours
  • Température de l'eau
  • Carte satellitaire
  • Carte météo
  • Widgets météo
  • user-avatar
    Se connecter

    Météo par heure à Canberra

    Ce jour, 15 Décembre, Samedi

    Heure Température Précipitation Vent Pression Humidité
    00:00 +18°C° 0.2 mm 1 m/s 702 mmHg 97%
    01:00 +16°C° 0.2 mm 1 m/s 702 mmHg 97%
    02:00 +16°C° 0.1 mm 1 m/s 702 mmHg 97%
    03:00 +16°C° 0.1 mm 1 m/s 702 mmHg 97%
    04:00 +16°C° 0.1 mm 1 m/s 702 mmHg 97%
    05:00 +18°C° 0.1 mm 1 m/s 702 mmHg 94%
    06:00 +19°C° 0.1 mm 1 m/s 702 mmHg 90%
    07:00 +20°C° 0.1 mm 1 m/s 703 mmHg 87%
    08:00 +21°C° 0.2 mm 2 m/s 703 mmHg 76%
    09:00 +24°C° 0.2 mm 3 m/s 703 mmHg 65%
    10:00 +26°C° 0.2 mm 4 m/s 703 mmHg 54%
    11:00 +26°C° 0.4 mm 4 m/s 703 mmHg 52%
    12:00 +27°C° 0.4 mm 4 m/s 703 mmHg 51%
    13:00 +27°C° 0.4 mm 4 m/s 703 mmHg 49%
    14:00 +26°C° 0.7 mm 4 m/s 702 mmHg 52%
    15:00 +26°C° 0.7 mm 3 m/s 702 mmHg 56%
    16:00 +25°C° 0.7 mm 3 m/s 701 mmHg 59%
    17:00 +24°C° 0.7 mm 2 m/s 701 mmHg 63%
    18:00 +21°C° 0.7 mm 2 m/s 701 mmHg 68%
    19:00 +21°C° 0.7 mm 1 m/s 701 mmHg 73%
    20:00 +20°C° 0.1 mm 1 m/s 702 mmHg 77%
    21:00 +19°C° 0.1 mm 1 m/s 702 mmHg 81%
    22:00 +18°C° 0.1 mm 1 m/s 702 mmHg 84%
    23:00 +18°C° 0 mm 1 m/s 702 mmHg 85%

    Demain, 16 Décembre, Dimanche

    Heure Température Précipitation Vent Pression Humidité
    00:00 +16°C° 0 mm 1 m/s 702 mmHg 85%
    01:00 +16°C° 0 mm 1 m/s 702 mmHg 86%
    02:00 +16°C° 0 mm 1 m/s 702 mmHg 84%
    03:00 +16°C° 0 mm 1 m/s 702 mmHg 83%
    04:00 +15°C° 0 mm 1 m/s 702 mmHg 82%
    05:00 +16°C° 0 mm 1 m/s 702 mmHg 77%
    06:00 +18°C° 0 mm 1 m/s 703 mmHg 72%
    07:00 +19°C° 0 mm 1 m/s 703 mmHg 68%
    08:00 +20°C° 0 mm 2 m/s 703 mmHg 61%
    09:00 +21°C° 0 mm 3 m/s 704 mmHg 54%
    10:00 +22°C° 0 mm 3 m/s 704 mmHg 48%
    11:00 +23°C° 0 mm 4 m/s 704 mmHg 45%
    12:00 +23°C° 0 mm 4 m/s 703 mmHg 43%
    13:00 +25°C° 0 mm 5 m/s 703 mmHg 40%
    14:00 +26°C° 0 mm 5 m/s 703 mmHg 39%
    15:00 +26°C° 0 mm 4 m/s 703 mmHg 38%
    16:00 +27°C° 0 mm 4 m/s 703 mmHg 37%
    17:00 +25°C° 0 mm 3 m/s 703 mmHg 43%
    18:00 +23°C° 0 mm 2 m/s 703 mmHg 49%
    19:00 +22°C° 0 mm 1 m/s 703 mmHg 55%
    20:00 +20°C° 0 mm 1 m/s 703 mmHg 56%
    21:00 +19°C° 0 mm 1 m/s 704 mmHg 58%
    22:00 +18°C° 0 mm 1 m/s 704 mmHg 59%
    23:00 +16°C° 0 mm 1 m/s 704 mmHg 60%

    Après-demain, 17 Décembre, Lundi

    Heure Température Précipitation Vent Pression Humidité
    00:00 +16°C° 0 mm 1 m/s 704 mmHg 61%
    01:00 +15°C° 0 mm 1 m/s 704 mmHg 62%
    02:00 +15°C° 0 mm 1 m/s 704 mmHg 64%
    03:00 +15°C° 0 mm 1 m/s 704 mmHg 66%
    04:00 +15°C° 0 mm 1 m/s 704 mmHg 68%
    05:00 +16°C° 0 mm 1 m/s 704 mmHg 64%
    06:00 +19°C° 0 mm 1 m/s 705 mmHg 60%
    07:00 +21°C° 0 mm 1 m/s 706 mmHg 56%
    08:00 +23°C° 0 mm 2 m/s 706 mmHg 50%
    09:00 +25°C° 0 mm 3 m/s 706 mmHg 45%
    10:00 +27°C° 0 mm 3 m/s 706 mmHg 39%
    11:00 +28°C° 0 mm 3 m/s 706 mmHg 36%
    12:00 +29°C° 0 mm 3 m/s 706 mmHg 33%
    13:00 +30°C° 0 mm 4 m/s 706 mmHg 31%
    14:00 +30°C° 0 mm 4 m/s 706 mmHg 32%
    15:00 +30°C° 0 mm 4 m/s 706 mmHg 33%
    16:00 +30°C° 0 mm 4 m/s 706 mmHg 34%
    17:00 +27°C° 0 mm 3 m/s 706 mmHg 43%
    18:00 +25°C° 0 mm 2 m/s 706 mmHg 51%
    19:00 +23°C° 0 mm 2 m/s 707 mmHg 60%
    20:00 +20°C° 0 mm 2 m/s 707 mmHg 67%
    21:00 +20°C° 0 mm 1 m/s 707 mmHg 75%
    22:00 +18°C° 0 mm 1 m/s 708 mmHg 83%
    23:00 +18°C° 0 mm 1 m/s 707 mmHg 86%

    18 Décembre, Mardi

    Heure Température Précipitation Vent Pression Humidité
    00:00 +16°C° 0 mm 1 m/s 707 mmHg 89%
    01:00 +16°C° 0 mm 1 m/s 707 mmHg 92%
    02:00 +15°C° 0 mm 1 m/s 707 mmHg 91%
    03:00 +15°C° 0 mm 1 m/s 707 mmHg 91%
    04:00 +15°C° 0 mm 1 m/s 707 mmHg 91%
    05:00 +18°C° 0 mm 1 m/s 708 mmHg 82%
    06:00 +20°C° 0 mm 1 m/s 708 mmHg 74%
    07:00 +22°C° 0 mm 1 m/s 709 mmHg 66%
    08:00 +24°C° 0 mm 1 m/s 709 mmHg 58%
    09:00 +27°C° 0 mm 1 m/s 709 mmHg 50%
    10:00 +29°C° 0 mm 1 m/s 710 mmHg 42%
    11:00 +30°C° 0 mm 2 m/s 710 mmHg 38%
    12:00 +32°C° 0 mm 2 m/s 709 mmHg 34%
    13:00 +34°C° 0 mm 2 m/s 709 mmHg 31%
    14:00 +34°C° 0 mm 2 m/s 709 mmHg 31%
    15:00 +34°C° 0 mm 2 m/s 709 mmHg 32%
    16:00 +32°C° 0 mm 2 m/s 708 mmHg 32%
    17:00 +29°C° 0 mm 3 m/s 708 mmHg 44%
    18:00 +26°C° 0 mm 3 m/s 709 mmHg 56%
    19:00 +24°C° 0 mm 3 m/s 709 mmHg 69%
    20:00 +21°C° 0 mm 3 m/s 709 mmHg 75%
    21:00 +20°C° 0 mm 3 m/s 709 mmHg 81%
    22:00 +18°C° 0 mm 3 m/s 709 mmHg 87%
    23:00 +18°C° 0 mm 3 m/s 709 mmHg 88%

    19 Décembre, Mercredi

    Heure Température Précipitation Vent Pression Humidité
    00:00 +17°C° 0 mm 3 m/s 709 mmHg 89%
    01:00 +17°C° 0 mm 2 m/s 708 mmHg 90%
    02:00 +16°C° 0 mm 2 m/s 708 mmHg 91%
    03:00 +16°C° 0 mm 2 m/s 708 mmHg 92%
    04:00 +16°C° 0 mm 1 m/s 707 mmHg 93%
    05:00 +18°C° 0 mm 1 m/s 708 mmHg 87%
    06:00 +20°C° 0 mm 1 m/s 708 mmHg 82%
    07:00 +21°C° 0 mm 1 m/s 708 mmHg 76%
    08:00 +24°C° 0 mm 2 m/s 708 mmHg 67%
    09:00 +27°C° 0 mm 2 m/s 708 mmHg 57%
    10:00 +30°C° 0 mm 2 m/s 709 mmHg 48%
    11:00 +33°C° 0 mm 3 m/s 708 mmHg 43%
    12:00 +35°C° 0 mm 4 m/s 707 mmHg 38%
    13:00 +37°C° 0 mm 5 m/s 707 mmHg 33%
    14:00 +36°C° 0.3 mm 4 m/s 706 mmHg 36%
    15:00 +35°C° 0.3 mm 4 m/s 706 mmHg 39%
    16:00 +35°C° 0.3 mm 4 m/s 705 mmHg 41%
    17:00 +30°C° 4.8 mm 3 m/s 705 mmHg 55%
    18:00 +27°C° 4.8 mm 2 m/s 704 mmHg 70%
    19:00 +24°C° 4.8 mm 2 m/s 704 mmHg 84%
    20:00 +24°C° 0 mm 2 m/s 704 mmHg 85%
    21:00 +23°C° 0 mm 2 m/s 703 mmHg 87%
    22:00 +23°C° 0 mm 2 m/s 703 mmHg 88%
    23:00 +23°C° 0 mm 2 m/s 702 mmHg 89%

    20 Décembre, Jeudi

    Heure Température Précipitation Vent Pression Humidité
    00:00 +23°C° 0 mm 1 m/s 702 mmHg 89%
    01:00 +22°C° 0 mm 1 m/s 701 mmHg 90%
    02:00 +21°C° 0 mm 2 m/s 701 mmHg 88%
    03:00 +21°C° 0 mm 2 m/s 701 mmHg 85%
    04:00 +21°C° 0 mm 2 m/s 701 mmHg 83%
    05:00 +22°C° 0 mm 3 m/s 701 mmHg 74%
    06:00 +24°C° 0 mm 3 m/s 702 mmHg 66%
    07:00 +25°C° 0 mm 4 m/s 702 mmHg 58%
    08:00 +27°C° 0 mm 5 m/s 702 mmHg 49%
    09:00 +28°C° 0 mm 5 m/s 703 mmHg 40%
    10:00 +30°C° 0 mm 6 m/s 703 mmHg 31%
    11:00 +30°C° 0 mm 6 m/s 703 mmHg 30%
    12:00 +32°C° 0 mm 6 m/s 702 mmHg 29%
    13:00 +32°C° 0 mm 6 m/s 702 mmHg 28%
    14:00 +32°C° 0 mm 6 m/s 702 mmHg 29%
    15:00 +30°C° 0 mm 6 m/s 702 mmHg 30%
    16:00 +30°C° 0 mm 5 m/s 702 mmHg 31%
    17:00 +27°C° 0 mm 4 m/s 702 mmHg 38%
    18:00 +25°C° 0 mm 4 m/s 703 mmHg 44%
    19:00 +22°C° 0 mm 3 m/s 703 mmHg 51%
    20:00 +20°C° 0 mm 2 m/s 703 mmHg 56%
    21:00 +18°C° 0 mm 2 m/s 704 mmHg 62%
    22:00 +18°C° 0 mm 1 m/s 704 mmHg 67%
    23:00 +16°C° 0 mm 1 m/s 704 mmHg 70%
    Voir plus